EJA809 KGVL-KSVN

Flight info

Callsign EJA809
Flight time 0h 42m
Altitude 29000
Route CHOPZ TYFTR
Aircraft C700/M-SBDGHM1RWXY/LB2

Departure

Time 2026-05-07 22:30
Airport Lee Gilmer Memorial Airport (KGVL)

Arrival

Time 2026-05-07 23:12
Airport Hunter Army Air Field (KSVN)
Time Latitude Longitude Altitude Speed Heading
2026-05-07 22:05 34.27589 -83.83074 1265 ft 0 kts 319°
2026-05-07 22:25 34.27596 -83.83074 1271 ft 3 kts 13°
2026-05-07 22:25 34.27615 -83.83032 1263 ft 11 kts 44°
2026-05-07 22:26 34.27680 -83.82961 1261 ft 11 kts 43°
2026-05-07 22:26 34.27683 -83.82902 1261 ft 8 kts 57°
2026-05-07 22:26 34.27753 -83.82828 1253 ft 19 kts 41°
2026-05-07 22:26 34.27869 -83.82707 1244 ft 13 kts 40°
2026-05-07 22:27 34.27885 -83.82681 1248 ft 0 kts 86°
2026-05-07 22:29 34.27885 -83.82673 1246 ft 4 kts 97°
2026-05-07 22:29 34.27857 -83.82623 1243 ft 9 kts 134°
2026-05-07 22:29 34.27810 -83.82642 1244 ft 0 kts 220°
2026-05-07 22:29 34.27800 -83.82653 1251 ft 19 kts 220°
2026-05-07 22:30 34.27392 -83.83081 1294 ft 132 kts 221°
2026-05-07 22:30 34.26421 -83.84062 2005 ft 220 kts 221°
2026-05-07 22:30 34.25244 -83.85149 3087 ft 221 kts 219°
2026-05-07 22:30 34.23919 -83.86247 4729 ft 239 kts 218°
2026-05-07 22:31 34.22502 -83.87413 6541 ft 252 kts 218°
2026-05-07 22:31 34.21019 -83.88610 8415 ft 259 kts 219°
2026-05-07 22:31 34.19426 -83.89751 9972 ft 275 kts 209°
2026-05-07 22:31 34.17460 -83.90015 11653 ft 293 kts 186°
2026-05-07 22:32 34.15409 -83.89320 13350 ft 324 kts 162°
2026-05-07 22:32 34.13397 -83.87941 14841 ft 340 kts 157°
2026-05-07 22:32 34.11368 -83.86393 16323 ft 349 kts 158°
2026-05-07 22:32 34.09259 -83.84894 17813 ft 354 kts 162°
2026-05-07 22:33 34.07060 -83.83490 19115 ft 362 kts 163°
2026-05-07 22:33 34.04814 -83.82029 20352 ft 372 kts 162°
2026-05-07 22:33 34.02539 -83.80430 21569 ft 383 kts 160°
2026-05-07 22:33 34.00224 -83.78758 22749 ft 391 kts 160°
2026-05-07 22:34 33.97843 -83.77111 23823 ft 398 kts 162°
2026-05-07 22:34 33.95425 -83.75517 24779 ft 404 kts 162°
2026-05-07 22:34 33.92941 -83.73863 25814 ft 411 kts 161°
2026-05-07 22:34 33.90438 -83.72126 26820 ft 419 kts 160°
2026-05-07 22:35 33.87900 -83.70338 27754 ft 426 kts 161°
2026-05-07 22:35 33.85357 -83.68392 28679 ft 443 kts 153°
2026-05-07 22:35 33.82952 -83.65881 28965 ft 471 kts 145°
2026-05-07 22:35 33.80504 -83.63067 28970 ft 500 kts 144°
2026-05-07 22:36 33.77886 -83.60175 28970 ft 519 kts 146°
2026-05-07 22:36 33.72407 -83.54310 28951 ft 544 kts 145°
2026-05-07 22:37 33.66878 -83.48062 28942 ft 547 kts 143°
2026-05-07 22:37 33.61233 -83.41947 28942 ft 547 kts 146°
2026-05-07 22:38 33.55570 -83.35807 28947 ft 549 kts 143°
2026-05-07 22:38 33.50008 -83.29550 28947 ft 546 kts 144°
2026-05-07 22:39 33.44359 -83.23588 28945 ft 545 kts 145°
2026-05-07 22:39 33.38726 -83.17331 28931 ft 551 kts 143°
2026-05-07 22:40 33.33188 -83.11280 28907 ft 533 kts 146°
2026-05-07 22:40 33.27622 -83.05407 28918 ft 536 kts 144°
2026-05-07 22:41 33.22170 -82.99290 28912 ft 536 kts 143°
2026-05-07 22:41 33.16603 -82.93420 28907 ft 532 kts 146°
2026-05-07 22:42 33.11111 -82.87472 28907 ft 534 kts 143°
2026-05-07 22:42 33.05636 -82.81460 28902 ft 535 kts 145°
2026-05-07 22:43 33.00081 -82.75668 28901 ft 534 kts 144°
2026-05-07 22:43 32.94637 -82.69656 28897 ft 533 kts 143°
2026-05-07 22:44 32.89091 -82.63787 28894 ft 535 kts 145°
2026-05-07 22:44 32.83527 -82.57880 28903 ft 536 kts 143°
2026-05-07 22:45 32.78066 -82.51898 28717 ft 535 kts 144°
2026-05-07 22:45 32.75265 -82.48981 27827 ft 529 kts 145°
2026-05-07 22:45 32.72553 -82.46169 26968 ft 506 kts 144°
2026-05-07 22:45 32.69991 -82.43431 26145 ft 486 kts 144°
2026-05-07 22:46 32.67540 -82.40749 25357 ft 475 kts 143°
2026-05-07 22:46 32.65091 -82.38113 24562 ft 475 kts 144°
2026-05-07 22:46 32.62604 -82.35518 23768 ft 475 kts 145°
2026-05-07 22:46 32.60128 -82.32945 22925 ft 472 kts 144°
2026-05-07 22:47 32.57699 -82.30358 22138 ft 469 kts 144°
2026-05-07 22:47 32.55311 -82.27775 21363 ft 473 kts 143°
2026-05-07 22:47 32.52865 -82.25156 20573 ft 475 kts 144°
2026-05-07 22:47 32.50395 -82.22567 19777 ft 474 kts 144°
2026-05-07 22:48 32.47946 -82.20019 18998 ft 460 kts 144°
2026-05-07 22:48 32.45600 -82.17545 18245 ft 444 kts 143°
2026-05-07 22:48 32.43339 -82.15085 17471 ft 439 kts 141°
2026-05-07 22:48 32.41405 -82.12281 16737 ft 440 kts 128°
2026-05-07 22:49 32.39877 -82.09194 16011 ft 430 kts 119°
2026-05-07 22:49 32.38827 -82.05920 15301 ft 422 kts 109°
2026-05-07 22:49 32.38046 -82.02599 14603 ft 417 kts 107°
2026-05-07 22:49 32.37247 -81.99324 13906 ft 412 kts 109°
2026-05-07 22:50 32.36362 -81.96124 13187 ft 406 kts 110°
2026-05-07 22:50 32.35496 -81.92976 12514 ft 399 kts 109°
2026-05-07 22:50 32.34727 -81.89874 11848 ft 384 kts 108°
2026-05-07 22:50 32.34035 -81.86906 11218 ft 366 kts 108°
2026-05-07 22:51 32.33076 -81.84226 10802 ft 342 kts 122°
2026-05-07 22:51 32.31938 -81.81872 10471 ft 320 kts 124°
2026-05-07 22:51 32.30890 -81.79576 10134 ft 316 kts 121°
2026-05-07 22:51 32.29905 -81.77265 9801 ft 314 kts 121°
2026-05-07 22:52 32.28895 -81.74992 9439 ft 311 kts 123°
2026-05-07 22:52 32.27848 -81.72771 9078 ft 308 kts 123°
2026-05-07 22:52 32.26806 -81.70573 8718 ft 302 kts 123°
2026-05-07 22:52 32.25822 -81.68436 8365 ft 290 kts 123°
2026-05-07 22:53 32.24890 -81.66358 8015 ft 282 kts 120°
2026-05-07 22:53 32.24046 -81.64291 7667 ft 277 kts 119°
2026-05-07 22:53 32.23232 -81.62242 7321 ft 275 kts 119°
2026-05-07 22:53 32.22428 -81.60205 6990 ft 272 kts 118°
2026-05-07 22:54 32.21629 -81.58184 6654 ft 270 kts 119°
2026-05-07 22:54 32.20839 -81.56183 6315 ft 268 kts 118°
2026-05-07 22:54 32.20234 -81.54112 5952 ft 270 kts 98°
2026-05-07 22:54 32.20377 -81.51909 5597 ft 268 kts 82°
2026-05-07 22:55 32.20686 -81.49760 5253 ft 263 kts 81°
2026-05-07 22:55 32.20971 -81.47674 4938 ft 258 kts 82°
2026-05-07 22:55 32.21233 -81.45629 4915 ft 248 kts 83°
2026-05-07 22:55 32.21488 -81.43597 4913 ft 253 kts 82°
2026-05-07 22:56 32.21744 -81.41516 4911 ft 257 kts 83°
2026-05-07 22:56 32.22002 -81.39426 4907 ft 257 kts 82°
2026-05-07 22:56 32.22255 -81.37342 4908 ft 256 kts 83°
2026-05-07 22:56 32.22510 -81.35261 4911 ft 256 kts 83°
2026-05-07 22:57 32.22773 -81.33177 4909 ft 257 kts 82°
2026-05-07 22:57 32.23034 -81.31089 4907 ft 256 kts 82°
2026-05-07 22:57 32.23292 -81.29008 4909 ft 257 kts 82°
2026-05-07 22:57 32.23547 -81.26916 4912 ft 258 kts 83°
2026-05-07 22:58 32.23806 -81.24817 4908 ft 258 kts 83°
2026-05-07 22:58 32.24066 -81.22718 4912 ft 259 kts 82°
2026-05-07 22:58 32.24318 -81.20612 4913 ft 259 kts 82°
2026-05-07 22:58 32.24569 -81.18508 4911 ft 259 kts 82°
2026-05-07 22:59 32.24818 -81.16403 4911 ft 259 kts 82°
2026-05-07 22:59 32.25069 -81.14299 4910 ft 259 kts 82°
2026-05-07 22:59 32.25319 -81.12194 4913 ft 259 kts 82°
2026-05-07 22:59 32.25570 -81.10077 4911 ft 259 kts 82°
2026-05-07 23:00 32.25818 -81.07971 4911 ft 259 kts 83°
2026-05-07 23:00 32.26067 -81.05868 4912 ft 258 kts 82°
2026-05-07 23:00 32.26314 -81.03762 4906 ft 260 kts 82°
2026-05-07 23:00 32.26559 -81.01634 4906 ft 262 kts 83°
2026-05-07 23:01 32.26806 -80.99518 4903 ft 258 kts 83°
2026-05-07 23:01 32.26654 -80.97439 4844 ft 258 kts 114°
2026-05-07 23:01 32.25615 -80.95745 4609 ft 254 kts 140°
2026-05-07 23:01 32.24308 -80.94372 4363 ft 248 kts 143°
2026-05-07 23:02 32.23017 -80.93060 4120 ft 248 kts 143°
2026-05-07 23:02 32.21716 -80.91726 3876 ft 246 kts 143°
2026-05-07 23:02 32.20442 -80.90411 3632 ft 238 kts 142°
2026-05-07 23:02 32.19231 -80.89153 3385 ft 227 kts 142°
2026-05-07 23:03 32.18059 -80.87939 3133 ft 221 kts 142°
2026-05-07 23:03 32.16922 -80.86755 2916 ft 214 kts 142°
2026-05-07 23:03 32.15780 -80.85699 2894 ft 207 kts 158°
2026-05-07 23:03 32.14397 -80.85222 2905 ft 209 kts 173°
2026-05-07 23:04 32.12961 -80.84904 2905 ft 210 kts 173°
2026-05-07 23:04 32.11531 -80.84572 2907 ft 209 kts 173°
2026-05-07 23:04 32.10149 -80.84234 2892 ft 194 kts 172°
2026-05-07 23:04 32.08895 -80.83910 2893 ft 177 kts 173°
2026-05-07 23:05 32.08104 -80.83822 2895 ft 169 kts 191°
2026-05-07 23:05 32.06997 -80.84203 2811 ft 168 kts 204°
2026-05-07 23:05 32.05893 -80.84694 2558 ft 169 kts 208°
2026-05-07 23:05 32.05028 -80.85588 2303 ft 166 kts 232°
2026-05-07 23:06 32.04362 -80.86671 2210 ft 157 kts 233°
2026-05-07 23:06 32.03754 -80.87662 2197 ft 146 kts 232°
2026-05-07 23:06 32.03146 -80.88667 2197 ft 155 kts 233°
2026-05-07 23:06 32.02511 -80.89690 2197 ft 153 kts 233°
2026-05-07 23:07 32.01686 -80.91012 2194 ft 151 kts 232°
2026-05-07 23:07 32.01264 -80.91692 2198 ft 152 kts 233°
2026-05-07 23:07 32.00643 -80.92702 2187 ft 152 kts 235°
2026-05-07 23:07 32.00382 -80.93909 2177 ft 159 kts 267°
2026-05-07 23:08 32.00428 -80.95184 2178 ft 154 kts 266°
2026-05-07 23:08 32.00428 -80.96419 2175 ft 149 kts 266°
2026-05-07 23:08 32.00445 -80.97628 2176 ft 147 kts 268°
2026-05-07 23:08 32.00491 -80.98831 2155 ft 148 kts 268°
2026-05-07 23:09 32.00529 -81.00035 1983 ft 143 kts 267°
2026-05-07 23:09 32.00564 -81.01162 1802 ft 133 kts 267°
2026-05-07 23:09 32.00603 -81.02227 1629 ft 128 kts 266°
2026-05-07 23:09 32.00633 -81.03274 1473 ft 120 kts 264°
2026-05-07 23:10 32.00664 -81.04249 1319 ft 124 kts 265°
2026-05-07 23:10 32.00694 -81.05273 1156 ft 123 kts 266°
2026-05-07 23:10 32.00730 -81.06252 998 ft 117 kts 265°
2026-05-07 23:10 32.00766 -81.07205 856 ft 118 kts 264°
2026-05-07 23:11 32.00780 -81.08183 749 ft 118 kts 268°
2026-05-07 23:11 32.00811 -81.09155 630 ft 121 kts 270°
2026-05-07 23:11 32.00851 -81.10129 499 ft 117 kts 270°
2026-05-07 23:11 32.00888 -81.11077 357 ft 110 kts 269°
2026-05-07 23:12 32.00919 -81.11959 225 ft 110 kts 272°
2026-05-07 23:12 32.00946 -81.12827 85 ft 94 kts 271°
2026-05-07 23:12 32.00963 -81.13481 29 ft 64 kts 272°
2026-05-07 23:12 32.00975 -81.13890 23 ft 40 kts 272°
2026-05-07 23:13 32.00985 -81.14173 25 ft 30 kts 273°
2026-05-07 23:13 32.00996 -81.14413 26 ft 30 kts 272°
2026-05-07 23:13 32.01004 -81.14667 28 ft 32 kts 272°
2026-05-07 23:13 32.01048 -81.14800 31 ft 14 kts 352°
2026-05-07 23:14 32.01144 -81.14748 31 ft 19 kts 49°
2026-05-07 23:14 32.01224 -81.14749 29 ft 15 kts 292°
2026-05-07 23:14 32.01231 -81.14893 30 ft 20 kts 271°
2026-05-07 23:14 32.01239 -81.15068 29 ft 23 kts 273°
2026-05-07 23:15 32.01246 -81.15279 25 ft 28 kts 271°
2026-05-07 23:15 32.01254 -81.15524 22 ft 32 kts 273°
2026-05-07 23:15 32.01264 -81.15800 17 ft 35 kts 271°
2026-05-07 23:15 32.01295 -81.15988 20 ft 18 kts 311°
2026-05-07 23:16 32.01311 -81.16026 21 ft 0 kts 285°
2026-05-07 23:24 32.01308 -81.16044 22 ft 5 kts 242°
2026-05-07 23:24 32.01274 -81.16090 21 ft 10 kts 232°
2026-05-07 23:24 32.01202 -81.16131 20 ft 14 kts 181°
2026-05-07 23:25 32.01146 -81.16133 19 ft 0 kts 182°
2026-05-07 23:31 32.01097 -81.16136 21 ft 10 kts 182°
2026-05-07 23:31 32.01049 -81.16071 18 ft 15 kts 91°
2026-05-07 23:32 32.01043 -81.15887 18 ft 51 kts 92°
2026-05-07 23:32 32.01015 -81.15054 31 ft 147 kts 92°
2026-05-07 23:32 32.00960 -81.13607 425 ft 197 kts 94°
2026-05-07 23:32 32.00929 -81.11905 1408 ft 219 kts 92°
2026-05-07 23:33 32.00911 -81.09914 1904 ft 262 kts 93°
2026-05-07 23:33 32.00901 -81.07807 1908 ft 251 kts 93°
2026-05-07 23:33 32.00906 -81.05784 1900 ft 243 kts 92°
2026-05-07 23:33 32.00913 -81.03787 1899 ft 247 kts 92°
2026-05-07 23:34 32.00909 -81.01744 1895 ft 251 kts 92°
2026-05-07 23:34 32.00895 -80.99710 1896 ft 245 kts 93°
2026-05-07 23:34 32.00896 -80.97704 1896 ft 246 kts 92°
2026-05-07 23:34 32.00913 -80.95700 1898 ft 249 kts 89°
2026-05-07 23:35 32.01422 -80.93759 1881 ft 252 kts 55°
2026-05-07 23:35 32.02740 -80.92479 1884 ft 245 kts 19°
2026-05-07 23:35 32.04382 -80.92184 1884 ft 235 kts 354°
2026-05-07 23:35 32.06006 -80.92259 1891 ft 236 kts 352°
2026-05-07 23:36 32.07657 -80.92370 1897 ft 237 kts 352°
2026-05-07 23:36 32.09192 -80.92787 1891 ft 217 kts 328°
2026-05-07 23:36 32.10362 -80.93733 1884 ft 192 kts 309°
2026-05-07 23:36 32.11156 -80.94915 1884 ft 178 kts 301°
2026-05-07 23:37 32.11893 -80.96083 1881 ft 178 kts 302°
2026-05-07 23:37 32.12494 -80.97341 1882 ft 175 kts 287°
2026-05-07 23:37 32.12771 -80.98724 1884 ft 173 kts 274°
2026-05-07 23:37 32.12840 -81.00109 1879 ft 165 kts 269°
2026-05-07 23:38 32.12852 -81.01429 1900 ft 163 kts 269°
2026-05-07 23:38 32.12859 -81.02811 1901 ft 171 kts 268°
2026-05-07 23:38 32.12836 -81.04197 1929 ft 162 kts 267°
2026-05-07 23:38 32.12818 -81.05457 1920 ft 147 kts 267°
2026-05-07 23:39 32.12824 -81.06654 1880 ft 145 kts 269°
2026-05-07 23:39 32.12850 -81.07853 1814 ft 147 kts 267°
2026-05-07 23:39 32.12846 -81.09079 1704 ft 149 kts 267°
2026-05-07 23:39 32.12810 -81.10278 1609 ft 147 kts 266°
2026-05-07 23:40 32.12819 -81.11466 1443 ft 142 kts 270°
2026-05-07 23:40 32.12854 -81.12632 1237 ft 143 kts 269°
2026-05-07 23:40 32.12870 -81.13806 996 ft 143 kts 267°
2026-05-07 23:40 32.12869 -81.14959 823 ft 137 kts 267°
2026-05-07 23:41 32.12860 -81.16075 630 ft 134 kts 266°
2026-05-07 23:41 32.12873 -81.17137 480 ft 126 kts 266°
2026-05-07 23:41 32.12857 -81.18134 263 ft 117 kts 266°
2026-05-07 23:41 32.12852 -81.19046 68 ft 106 kts 270°
2026-05-07 23:42 32.12860 -81.19870 42 ft 110 kts 270°
2026-05-07 23:42 32.12874 -81.20957 374 ft 144 kts 270°
2026-05-07 23:42 32.12929 -81.22178 1080 ft 159 kts 269°
2026-05-07 23:42 32.13040 -81.23571 1871 ft 173 kts 278°
2026-05-07 23:43 32.13713 -81.24734 1903 ft 182 kts 322°
2026-05-07 23:43 32.15050 -81.24989 1909 ft 217 kts
2026-05-07 23:43 32.16430 -81.24096 1920 ft 238 kts 43°
2026-05-07 23:43 32.17452 -81.22549 1930 ft 243 kts 53°
2026-05-07 23:44 32.18414 -81.20883 1926 ft 242 kts 58°
2026-05-07 23:44 32.18950 -81.19041 1927 ft 240 kts 81°
2026-05-07 23:44 32.19194 -81.17081 1924 ft 243 kts 83°
2026-05-07 23:44 32.19421 -81.15097 1930 ft 244 kts 83°
2026-05-07 23:45 32.19657 -81.13122 1926 ft 241 kts 82°
2026-05-07 23:45 32.19887 -81.11168 1925 ft 241 kts 83°
2026-05-07 23:45 32.20116 -81.09203 1926 ft 242 kts 83°
2026-05-07 23:45 32.20351 -81.07224 1924 ft 245 kts 82°
2026-05-07 23:46 32.20584 -81.05231 1926 ft 245 kts 83°
2026-05-07 23:46 32.20819 -81.03235 1923 ft 245 kts 83°
2026-05-07 23:46 32.21057 -81.01237 1922 ft 246 kts 83°
2026-05-07 23:46 32.21302 -80.99229 1916 ft 247 kts 82°
2026-05-07 23:47 32.21549 -80.97236 1922 ft 244 kts 82°
2026-05-07 23:47 32.21793 -80.95261 1918 ft 242 kts 82°
2026-05-07 23:47 32.22023 -80.93319 1918 ft 242 kts 83°
2026-05-07 23:47 32.21855 -80.91356 1907 ft 241 kts 114°
2026-05-07 23:48 32.20916 -80.89761 1907 ft 234 kts 141°
2026-05-07 23:48 32.19736 -80.88454 1907 ft 231 kts 144°
2026-05-07 23:48 32.18540 -80.87167 1905 ft 233 kts 142°
2026-05-07 23:48 32.17335 -80.85876 1908 ft 235 kts 142°
2026-05-07 23:49 32.16120 -80.84583 1914 ft 235 kts 142°
2026-05-07 23:49 32.14909 -80.83288 1913 ft 235 kts 142°
2026-05-07 23:49 32.14104 -80.82444 1910 ft 231 kts 147°
2026-05-07 23:49 32.12719 -80.81649 1908 ft 214 kts 171°
2026-05-07 23:50 32.11328 -80.81220 1901 ft 200 kts 173°
2026-05-07 23:50 32.09621 -80.81122 1903 ft 175 kts 201°
2026-05-07 23:50 32.08449 -80.81524 1901 ft 177 kts 203°
2026-05-07 23:50 32.07271 -80.81937 1899 ft 176 kts 202°
2026-05-07 23:51 32.06491 -80.82207 1904 ft 177 kts 203°
2026-05-07 23:51 32.05324 -80.82646 1901 ft 173 kts 213°
2026-05-07 23:51 32.04446 -80.83565 1900 ft 168 kts 233°
2026-05-07 23:51 32.03700 -80.84622 1905 ft 167 kts 233°
2026-05-07 23:52 32.02959 -80.85654 1901 ft 159 kts 233°
2026-05-07 23:52 32.02255 -80.86616 1888 ft 151 kts 233°
2026-05-07 23:52 32.01554 -80.87546 1887 ft 153 kts 232°
2026-05-07 23:52 32.00847 -80.88469 1887 ft 148 kts 232°
2026-05-07 23:53 32.00233 -80.89389 1879 ft 141 kts 249°
2026-05-07 23:53 32.00215 -80.90505 1884 ft 140 kts 276°
2026-05-07 23:53 32.00256 -80.91656 1888 ft 142 kts 268°
2026-05-07 23:53 32.00284 -80.92817 1886 ft 141 kts 271°
2026-05-07 23:54 32.00337 -80.93962 1884 ft 140 kts 270°
2026-05-07 23:54 32.00363 -80.95116 1883 ft 143 kts 270°
2026-05-07 23:54 32.00406 -80.96297 1887 ft 144 kts 271°
2026-05-07 23:54 32.00448 -80.97464 1886 ft 141 kts 270°
2026-05-07 23:55 32.00476 -80.98618 1886 ft 141 kts 270°
2026-05-07 23:55 32.00524 -80.99779 1887 ft 142 kts 270°
2026-05-07 23:55 32.00554 -81.00944 1883 ft 142 kts 269°
2026-05-07 23:55 32.00594 -81.02115 1742 ft 140 kts 270°
2026-05-07 23:56 32.00634 -81.03176 1564 ft 125 kts 269°
2026-05-07 23:56 32.00660 -81.04241 1395 ft 134 kts 269°
2026-05-07 23:56 32.00700 -81.05293 1229 ft 123 kts 270°
2026-05-07 23:56 32.00733 -81.06293 1067 ft 123 kts 270°
2026-05-07 23:57 32.00769 -81.07299 915 ft 121 kts 268°
2026-05-07 23:57 32.00791 -81.08312 777 ft 129 kts 270°
2026-05-07 23:57 32.00825 -81.09334 630 ft 118 kts 271°
2026-05-07 23:57 32.00860 -81.10287 482 ft 116 kts 272°
2026-05-07 23:58 32.00889 -81.11257 331 ft 118 kts 272°
2026-05-07 23:58 32.00941 -81.12210 183 ft 115 kts 271°
2026-05-07 23:58 32.00956 -81.13084 58 ft 95 kts 272°
2026-05-07 23:58 32.00973 -81.13727 25 ft 47 kts 272°
2026-05-07 23:59 32.00983 -81.14077 23 ft 40 kts 271°
2026-05-07 23:59 32.00989 -81.14365 25 ft 32 kts 272°
2026-05-07 23:59 32.00995 -81.14573 28 ft 24 kts 272°
2026-05-07 23:59 32.01008 -81.14758 29 ft 16 kts 291°
2026-05-08 00:00 32.01105 -81.14789 31 ft 17 kts 23°
2026-05-08 00:00 32.01187 -81.14715 30 ft 14 kts
2026-05-08 00:00 32.01229 -81.14815 29 ft 17 kts 271°
2026-05-08 00:00 32.01234 -81.14965 30 ft 20 kts 272°
2026-05-08 00:01 32.01241 -81.15139 28 ft 23 kts 272°
2026-05-08 00:01 32.01246 -81.15287 24 ft 20 kts 272°
2026-05-08 00:01 32.01252 -81.15465 23 ft 24 kts 273°
2026-05-08 00:01 32.01257 -81.15608 21 ft 16 kts 272°
2026-05-08 00:02 32.01263 -81.15764 17 ft 21 kts 272°
2026-05-08 00:02 32.01268 -81.15950 19 ft 23 kts 277°
2026-05-08 00:02 32.01293 -81.16042 21 ft 0 kts 289°